Weather in Serdar

Turkmenistan     38°58′50″N   56°16′32″E
temp.,
°C
wind,
m/s
gust,
m/s
humid.,
%
clouds,
%
prec.,
mm/h
press.,
hPa
HPBL,
m
12 august, fri
fri1223:00+30ene611180 0.0 1011245
02:00+29e814220 0.0 1010333
05:00+27ene511250 0.0 1010196
08:00+27ene512240 0.0 1012732
11:00+32e1011170 0.0 10121841
14:00+35e910130 0.0 10102196
17:00+35e89130 0.0 10092381
20:00+33ene610140 0.0 1009241
13 august, sat
sat1323:00+30ne48190 0.0 1010117
02:00+28ene34220 0.0 101031
05:00+26e23240 0.0 101014
08:00+27ene25230 0.0 1011190
11:00+33e810150 0.0 10111436
14:00+36e88120 0.0 10092697
17:00+37ne88120 0.0 10072882
20:00+34ne69130 0.0 1007184
14 august, sun
sun1423:00+31ne34160 0.0 100833
02:00+29ene23200 0.0 100715
05:00+26ne12250 0.0 100711
08:00+28nne11230 0.0 100858
11:00+34e68160 0.0 10081149
14:00+37e88130 0.0 10072905
17:00+38ene67120 0.0 10063176
20:00+35ene57130 0.0 1006124
15 august, mon
mon1523:00+32ene34170 0.0 100731
02:00+30ne33200 0.0 100622
05:00+27ene22230 0.0 100711
08:00+29ne23190 0.0 1008107
11:00+33ne34140 0.0 1008818
14:00+37ne44130 0.0 10072342
17:00+38nne55110 0.0 10062635
20:00+35ne56110 0.0 1007102
16 august, tue
tue1623:00+32ne33130 0.0 100817
02:00+29ne22180 0.0 100812
05:00+27ne22230 0.0 100911
08:00+28ne23270 0.0 1010131
11:00+34e58170 0.0 10111023
14:00+38ene78130 0.0 10092786
17:00+38ne99120 0.0 10082946
20:00+35ne812110 0.0 1009272